Regional Weather Roundup
Issued by NWS New Orleans/Baton Rouge, LA

Home | Current Version | Previous Version | Text Only | Print | Product List | Glossary On
Versions: 1 2 3 4 5 6 7 8 9 10 11 12 13 14 15 16 17 18 19 20 21 22 23 24 25 26 27 28 29 30 31 32 33 34 35 36 37 38 39 40 41 42 43 44 45 46 47 48 49 50
232
ASUS44 KLIX 061213
RWRLIX
NEW ORLEANS REGIONAL WEATHER ROUNDUP
NATIONAL WEATHER SERVICE NEW ORLEANS LA
600 AM CST TUE DEC 06 2016

NOTE: "FAIR" INDICATES FEW OR NO CLOUDS BELOW 12,000 FEET WITH NO
      SIGNIFICANT WEATHER AND/OR OBSTRUCTIONS TO VISIBILITY.
      SKY/WX - SKY CONDITION AND SIGNIFICANT WEATHER.
      TMP - AIR TEMPERATURE.     DP    - DEWPOINT TEMPERATURE.
      RH  - RELATIVE HUMIDITY.   PRES  - PRESSURE.
      HI  - HEAT INDEX.          WCI   - WIND CHILL INDEX.

*  THESE STATIONS ARE NOT NWS OR FAA STATIONS AND ARE NOT UNDER
   NWS QUALITY CONTROL.

LAZ038-040-048-061>063-065>067-069-061300-
SOUTHEAST LOUISIANA

CITY           SKY/WX    TMP DP  RH WIND       PRES   REMARKS
N.O. AUDUBON   NOT AVBL
N.O. INTL ARPT CLOUDY    57  54  89 W20G26    29.83R
6HR MIN TEMP:  57; 6HR MAX TEMP:  66;

N.O. LAKEFRONT MOCLDY    58  54  86 W28       29.82R
6HR MIN TEMP:  58; 6HR MAX TEMP:  67;

N.O. DOWNTOWN*   N/A     58  52  80 VRB5      29.83R
6HR MIN TEMP:  58; 6HR MAX TEMP:  67;

RESERVE*       CLOUDY    57  54  88 W6        29.83R
6HR MIN TEMP:  57; 6HR MAX TEMP:  68;

SLIDELL        CLOUDY    58  54  86 W8        29.81R
6HR MIN TEMP:  58; 6HR MAX TEMP:  66;

BATON ROUGE    CLOUDY    52  51  97 SW8       29.83R FOG
6HR MIN TEMP:  52; 6HR MAX TEMP:  62; 6HR PCP: TRACE;

BOOTHVILLE     PTCLDY    59  58  96 W22G29    29.84R
6HR MIN TEMP:  59; 6HR MAX TEMP:  65;

BELLE CHASSE   PTCLDY    57  53  86 W10       29.82R
6HR MIN TEMP:  57; 6HR MAX TEMP:  68;

BOGALUSA*      CLOUDY    58  52  78 W12G18    29.82R
6HR MIN TEMP:  58; 6HR MAX TEMP:  67;

GALLIANO*      PTSUNNY   58  51  78 W12G22    29.85R
6HR MIN TEMP:  58; 6HR MAX TEMP:  64;

NEW ROADS*     CLOUDY    51  51  98 W6        29.84R
6HR MIN TEMP:  51; 6HR MAX TEMP:  56;

GONZALES*      CLOUDY    54  53  95 W9        29.84R
6HR MIN TEMP:  54; 6HR MAX TEMP:  65;

HAMMOND*       CLOUDY    55  50  82 W10G16    29.82R
HOUMA*         NOT AVBL
PORT FOURCHON* CLOUDY    63  57  82 W15G24    29.85R

$$

MSZ070-080>082-061300-
SOUTHERN MISSISSIPPI

CITY           SKY/WX    TMP DP  RH WIND       PRES   REMARKS
MCCOMB         CLOUDY    52  49  89 W15G21    29.81R
6HR MIN TEMP:  52; 6HR MAX TEMP:  64; 6HR PCP:  0.02;

GULFPORT       PTCLDY    58  54  86 W10G18    29.79R
6HR MIN TEMP:  58; 6HR MAX TEMP:  68;

BILOXI         CLOUDY    58  57  97 W9        29.79R
6HR MIN TEMP:  58; 6HR MAX TEMP:  67;

PASCAGOULA     PTCLDY    58  54  86 W12G21    29.78R
6HR MIN TEMP:  58; 6HR MAX TEMP:  68; 6HR PCP: TRACE;


$$

COASTAL OBSERVATIONS
LAKE AND NEARSHORE STATIONS

STATION/POSITION TIME  TEMP    WIND        PRES    WAVE
                       AIR SEA DIR/SP/G            HT/PER
                 (UTC) (F)     (DEG/KT/KT) (MB)    (FT/S)
PASCAGOULA       1142   60     260/ 17/ 26 1007.8
WAVELAND YACHT   1142   58 61  280/  7/ 12 1008.8
GRAND ISLE       1142   62 67  300/ 18/ 22 1010.2
SOUTHWEST PASS   1136          290/ 19/ 33   N/A
NEW CANAL        1142   58 62  260/ 12/ 16 1008.8
SHELL BEACH      1142   59 64  260/ 10/ 13 1009.7

OFFSHORE STATIONS

STATION/POSITION TIME  TEMP    WIND        PRES    WAVE
                       AIR SEA DIR/SP/G            HT/PER
                 (UTC) (F)     (DEG/KT/KT) (MB)    (FT/S)
64 S DAUPHIN ISL 1150   68 75  270/ 21/ 27 1009.5    6/ 7

$$





USA.gov is the U.S. government's official web portal to all federal, state and local government web resources and services.